Weather History for Grazzanise, Italy

Change the Weather History Date:

Saturday, August 3, 2013

  Actual Average (LIRN) Record (LIRN)
Temperature  
Mean Temperature 82 °F -  
Max Temperature 96 °F 84 °F 96 °F (1998)
Min Temperature 68 °F 63 °F 68 °F (1997)
Cooling Degree Days 17    
Growing Degree Days 32 (Base 50)    
Moisture  
Dew Point 73 °F    
Average Humidity 77    
Maximum Humidity 100    
Minimum Humidity 39    
Precipitation  
Precipitation 0.00 in 0.07 in - ()
Sea Level Pressure  
Sea Level Pressure 30.03 in    
Wind  
Wind Speed 4 mph ()    
Max Wind Speed 12 mph    
Max Gust Speed -    
Visibility 9.4 miles    
Events      
Averages and records for this station are not official NWS values.
T = Trace of Precipitation, MM = Missing Value Source: Averaged Metar Reports

Daily Weather History Graph

Daily Weather History Graph

Search for Another Location

Airport:

Trip Planner

Search our weather history database for the weather conditions in past years. The results will help you decide how hot, cold, wet, or windy it might be!

Date:

Astronomy

Aug. 03, 2013 Rise Set
Actual Time 6:01 AM CEST 8:17 PM CEST
Civil Twilight 5:30 AM CEST 8:48 PM CEST
Nautical Twilight 4:52 AM CEST 9:26 PM CEST
Astronomical Twilight 4:10 AM CEST 10:07 PM CEST
Moon 2:56 AM CEST (8/3) 5:47 PM CEST (8/3)
Length of Visible Light 15h 17m
Length of Day
14h 16m
Waning Crescent, 11% of the Moon is Illuminated
Aug 3
Waning Crescent
Aug 6
New
Aug 14
First Quarter
Aug 21
Full
Aug 28
Last Quarter

Hourly Weather History & Observations

Time (CEST) Temp. Heat Index Dew Point Humidity Pressure Visibility Wind Dir Wind Speed Gust Speed Precip Events Conditions
12:55 AM 73.4 °F - 73.4 °F 100% 30.04 in - ENE 2.3 mph - N/A   Clear
1:55 AM 71.6 °F - 69.8 °F 94% 30.04 in - NE 2.3 mph - N/A   Clear
2:00 AM 72 °F - 70 °F 91% 30.04 in 7 mi NE 2.3 mph - -  
2:55 AM 71.6 °F - 68.0 °F 88% 30.04 in - NNE 2.3 mph - N/A   Clear
3:55 AM 69.8 °F - 68.0 °F 94% 30.01 in - North 1.2 mph - N/A   Clear
4:55 AM 68.0 °F - 66.2 °F 94% 30.01 in - NE 3.5 mph - N/A   Clear
5:00 AM 68 °F - 65 °F 88% 30.02 in 7 mi NE 3.5 mph - -  
5:55 AM 68.0 °F - 64.4 °F 88% 30.01 in - ENE 3.5 mph - N/A   Clear
6:55 AM 69.8 °F - 66.2 °F 88% 30.04 in - NE 3.5 mph - N/A   Clear
7:55 AM 75.2 °F - 71.6 °F 89% 30.04 in - NE 4.6 mph - N/A   Clear
8:00 AM 74 °F - 71 °F 89% 30.04 in 16 mi NE 4.6 mph - -  
8:55 AM 78.8 °F - 71.6 °F 78% 30.04 in - NE 6.9 mph - N/A   Clear
9:55 AM 84.2 °F 92.3 °F 75.2 °F 74% 30.04 in - NE 4.6 mph - N/A   Clear
10:55 AM 89.6 °F 98.2 °F 73.4 °F 59% 30.04 in - NNW 2.3 mph - N/A   Clear
11:00 AM 89 °F - 73 °F 51% 30.04 in 9 mi NNW 2.3 mph - -  
11:55 AM 93.2 °F 100.5 °F 71.6 °F 49% 30.04 in - NW 4.6 mph - N/A   Clear
12:55 PM 96.8 °F 101.8 °F 68.0 °F 39% 30.04 in - NNW 3.5 mph - N/A   Clear
1:55 PM 95.0 °F 109.7 °F 77.0 °F 56% 30.04 in - West 9.2 mph - N/A   Clear
2:00 PM 95 °F - 76 °F 46% 30.04 in 9 mi West 9.2 mph - -  
2:55 PM 93.2 °F 105.0 °F 75.2 °F 56% 30.04 in - West 9.2 mph - N/A   Clear
3:55 PM 91.4 °F 100.1 °F 73.4 °F 55% 30.04 in - West 11.5 mph - N/A   Clear
4:55 PM 91.4 °F 102.5 °F 75.2 °F 59% 30.01 in - West 9.2 mph - N/A   Clear
5:00 PM 91 °F - 76 °F 52% 30.02 in 9 mi West 9.2 mph - -  
5:55 PM 89.6 °F 102.2 °F 77.0 °F 66% 30.01 in - West 8.1 mph - N/A   Clear
6:55 PM 87.8 °F 104.9 °F 80.6 °F 79% 30.01 in - West 9.2 mph - N/A   Clear
7:55 PM 84.2 °F 98.3 °F 80.6 °F 89% 30.01 in - WSW 4.6 mph - N/A   Clear
8:00 PM 84 °F - 80 °F 84% 30.01 in 9 mi WSW 4.6 mph - -  
8:55 PM 82.4 °F 94.0 °F 80.6 °F 94% 30.01 in - SSW 3.5 mph - N/A   Clear
9:55 PM 78.8 °F - 77.0 °F 94% 30.01 in - SE 3.5 mph - N/A   Clear
10:55 PM 78.8 °F - 78.8 °F 100% 30.04 in - ESE 3.5 mph - N/A   Clear
11:00 PM 79 °F - 78 °F 95% 30.04 in 9 mi ESE 3.5 mph - -  
11:55 PM 75.2 °F - 75.2 °F 100% 30.04 in - Calm Calm - N/A   Clear